WAT5735 CYHU-CYRQ

Flight info

Callsign WAT5735
Flight time 0h 28m
Altitude 7000
Route SINRO DCT LOKBU DCT SOKYE
Aircraft BE36/L-BDFGLORY/S

Departure

Time 2026-05-07 23:26
Airport Montréal / Saint-Hubert Metropolitan Airport (CYHU)

Arrival

Time 2026-05-07 23:54
Airport Trois-Rivières Airport (CYRQ)
Time Latitude Longitude Altitude Speed Heading
2026-05-07 23:26 45.51555 -73.57078 2761 ft 166 kts 353°
2026-05-07 23:26 45.52718 -73.57064 3076 ft 167 kts 353°
2026-05-07 23:27 45.54091 -73.57051 3442 ft 166 kts 353°
2026-05-07 23:27 45.54906 -73.57045 3660 ft 167 kts 353°
2026-05-07 23:27 45.56072 -73.57033 3974 ft 168 kts 353°
2026-05-07 23:28 45.57242 -73.57007 4295 ft 168 kts 353°
2026-05-07 23:28 45.58406 -73.56984 4612 ft 167 kts 353°
2026-05-07 23:28 45.59558 -73.56966 4920 ft 164 kts 353°
2026-05-07 23:28 45.60693 -73.56937 5228 ft 162 kts 354°
2026-05-07 23:29 45.61820 -73.56887 5542 ft 162 kts 354°
2026-05-07 23:29 45.62942 -73.56833 5856 ft 161 kts 354°
2026-05-07 23:29 45.64065 -73.56781 6175 ft 161 kts 355°
2026-05-07 23:29 45.65190 -73.56728 6476 ft 162 kts 354°
2026-05-07 23:30 45.66321 -73.56676 6782 ft 163 kts 355°
2026-05-07 23:30 45.67458 -73.56623 6999 ft 168 kts 355°
2026-05-07 23:30 45.68672 -73.56570 7001 ft 180 kts 355°
2026-05-07 23:30 45.69959 -73.56508 7016 ft 188 kts 356°
2026-05-07 23:31 45.71285 -73.56444 7019 ft 193 kts 356°
2026-05-07 23:31 45.72636 -73.56381 7020 ft 195 kts 356°
2026-05-07 23:31 45.73982 -73.56317 7017 ft 197 kts 356°
2026-05-07 23:31 45.75349 -73.56252 7019 ft 197 kts 356°
2026-05-07 23:32 45.76723 -73.56188 7013 ft 197 kts 356°
2026-05-07 23:32 45.78097 -73.56124 7013 ft 198 kts 356°
2026-05-07 23:32 45.79469 -73.56059 7014 ft 197 kts 356°
2026-05-07 23:32 45.80840 -73.55994 7012 ft 197 kts 356°
2026-05-07 23:33 45.82227 -73.55930 7015 ft 197 kts 356°
2026-05-07 23:33 45.83573 -73.55866 7016 ft 196 kts 357°
2026-05-07 23:33 45.84934 -73.55802 7015 ft 196 kts 356°
2026-05-07 23:33 45.86134 -73.55744 7014 ft 196 kts 356°
2026-05-07 23:34 45.86851 -73.55712 7012 ft 196 kts 356°
2026-05-07 23:34 45.88210 -73.55650 7012 ft 196 kts 356°
2026-05-07 23:34 45.89564 -73.55347 7007 ft 202 kts 15°
2026-05-07 23:34 45.90764 -73.54260 7004 ft 209 kts 39°
2026-05-07 23:35 45.91767 -73.52729 7007 ft 211 kts 42°
2026-05-07 23:35 45.92773 -73.51199 7000 ft 210 kts 42°
2026-05-07 23:35 45.93778 -73.49681 7001 ft 210 kts 42°
2026-05-07 23:35 45.94785 -73.48155 7005 ft 210 kts 41°
2026-05-07 23:36 45.95793 -73.46628 6999 ft 210 kts 42°
2026-05-07 23:36 45.96795 -73.45106 7001 ft 210 kts 41°
2026-05-07 23:36 45.97797 -73.43585 7011 ft 209 kts 42°
2026-05-07 23:36 45.98634 -73.42314 7011 ft 208 kts 43°
2026-05-07 23:37 45.99632 -73.40803 7007 ft 208 kts 42°
2026-05-07 23:37 46.00627 -73.39291 7005 ft 208 kts 43°
2026-05-07 23:37 46.01622 -73.37774 7007 ft 208 kts 43°
2026-05-07 23:37 46.02603 -73.36282 7005 ft 208 kts 43°
2026-05-07 23:38 46.03597 -73.34768 7009 ft 208 kts 43°
2026-05-07 23:38 46.04603 -73.33236 7008 ft 208 kts 43°
2026-05-07 23:38 46.05595 -73.31725 7005 ft 208 kts 43°
2026-05-07 23:38 46.06588 -73.30210 7005 ft 208 kts 42°
2026-05-07 23:39 46.07566 -73.28718 7004 ft 208 kts 43°
2026-05-07 23:39 46.08560 -73.27201 7004 ft 208 kts 43°
2026-05-07 23:39 46.09551 -73.25688 7002 ft 208 kts 43°
2026-05-07 23:39 46.10544 -73.24170 6999 ft 208 kts 43°
2026-05-07 23:40 46.11539 -73.22648 7002 ft 209 kts 42°
2026-05-07 23:40 46.12533 -73.21128 7003 ft 208 kts 43°
2026-05-07 23:40 46.13528 -73.19603 7000 ft 208 kts 43°
2026-05-07 23:40 46.14517 -73.18079 6938 ft 205 kts 42°
2026-05-07 23:41 46.15479 -73.16609 6805 ft 199 kts 42°
2026-05-07 23:41 46.16423 -73.15163 6672 ft 197 kts 42°
2026-05-07 23:41 46.17363 -73.13722 6492 ft 198 kts 42°
2026-05-07 23:41 46.18307 -73.12275 6317 ft 198 kts 42°
2026-05-07 23:42 46.19251 -73.10823 6136 ft 198 kts 42°
2026-05-07 23:42 46.20195 -73.09372 5943 ft 199 kts 42°
2026-05-07 23:42 46.21149 -73.07908 5735 ft 201 kts 42°
2026-05-07 23:42 46.22107 -73.06434 5524 ft 202 kts 42°
2026-05-07 23:43 46.23055 -73.04973 5317 ft 202 kts 42°
2026-05-07 23:43 46.24017 -73.03494 5108 ft 202 kts 41°
2026-05-07 23:43 46.24980 -73.02018 4897 ft 202 kts 41°
2026-05-07 23:43 46.25944 -73.00535 4693 ft 202 kts 41°
2026-05-07 23:44 46.26911 -72.99048 4486 ft 207 kts 41°
2026-05-07 23:44 46.27919 -72.97522 4271 ft 212 kts 41°
2026-05-07 23:44 46.28949 -72.95970 4054 ft 215 kts 41°
2026-05-07 23:44 46.29984 -72.94430 3997 ft 210 kts 41°
2026-05-07 23:45 46.30997 -72.92927 4001 ft 207 kts 41°
2026-05-07 23:45 46.31989 -72.91445 3997 ft 204 kts 41°
2026-05-07 23:45 46.32973 -72.89974 3993 ft 203 kts 41°
2026-05-07 23:45 46.33951 -72.88517 3996 ft 202 kts 41°
2026-05-07 23:46 46.34928 -72.87057 3993 ft 201 kts 41°
2026-05-07 23:46 46.35908 -72.85603 3992 ft 201 kts 41°
2026-05-07 23:46 46.36883 -72.84147 3991 ft 201 kts 41°
2026-05-07 23:46 46.37856 -72.82697 3991 ft 201 kts 41°
2026-05-07 23:47 46.38826 -72.81240 3990 ft 201 kts 42°
2026-05-07 23:47 46.39796 -72.79790 3990 ft 201 kts 41°
2026-05-07 23:47 46.40768 -72.78340 3999 ft 200 kts 41°
2026-05-07 23:47 46.41724 -72.76909 3997 ft 200 kts 41°
2026-05-07 23:48 46.42695 -72.75459 3996 ft 200 kts 41°
2026-05-07 23:48 46.43664 -72.74007 3996 ft 200 kts 41°
2026-05-07 23:48 46.44632 -72.72551 3996 ft 201 kts 41°
2026-05-07 23:48 46.45603 -72.71094 3997 ft 201 kts 41°
2026-05-07 23:49 46.46575 -72.69631 4002 ft 201 kts 41°
2026-05-07 23:49 46.47552 -72.68172 3990 ft 202 kts 41°
2026-05-07 23:49 46.48544 -72.66696 3866 ft 206 kts 41°
2026-05-07 23:49 46.49359 -72.64969 3723 ft 212 kts 62°
2026-05-07 23:50 46.49943 -72.62997 3601 ft 213 kts 64°
2026-05-07 23:50 46.50219 -72.60894 3462 ft 217 kts 94°
2026-05-07 23:50 46.49640 -72.58895 3299 ft 217 kts 131°
2026-05-07 23:50 46.48493 -72.57509 3121 ft 215 kts 147°
2026-05-07 23:51 46.47266 -72.56280 2944 ft 213 kts 152°
2026-05-07 23:51 46.45881 -72.55777 2747 ft 203 kts 188°
2026-05-07 23:51 46.44630 -72.56528 2552 ft 193 kts 226°
2026-05-07 23:51 46.43929 -72.58109 2371 ft 182 kts 248°
2026-05-07 23:52 46.43360 -72.59710 2184 ft 177 kts 242°
2026-05-07 23:52 46.42641 -72.61147 2007 ft 176 kts 232°
2026-05-07 23:52 46.41711 -72.62261 1986 ft 170 kts 219°
2026-05-07 23:52 46.40739 -72.63125 1936 ft 155 kts 217°
2026-05-07 23:53 46.39823 -72.63850 1700 ft 142 kts 213°
2026-05-07 23:53 46.38990 -72.64497 1272 ft 130 kts 217°
2026-05-07 23:53 46.38264 -72.65117 969 ft 115 kts 218°
2026-05-07 23:53 46.37657 -72.65715 687 ft 94 kts 218°
2026-05-07 23:54 46.37125 -72.66237 475 ft 93 kts 217°
2026-05-07 23:54 46.36599 -72.66732 343 ft 86 kts 212°
2026-05-07 23:54 46.36110 -72.67187 225 ft 76 kts 211°
2026-05-07 23:54 46.35751 -72.67513 201 ft 46 kts 212°
2026-05-07 23:55 46.35557 -72.67689 200 ft 20 kts 214°
2026-05-07 23:55 46.35465 -72.67822 200 ft 17 kts 240°
2026-05-07 23:55 46.35493 -72.67959 199 ft 14 kts 305°
2026-05-07 23:55 46.35554 -72.68058 199 ft 15 kts 347°
2026-05-07 23:56 46.35652 -72.67993 199 ft 17 kts 31°
2026-05-07 23:56 46.35762 -72.67895 200 ft 20 kts 32°
2026-05-07 23:56 46.35872 -72.67797 200 ft 17 kts 30°
2026-05-07 23:56 46.35971 -72.67710 201 ft 16 kts 30°
2026-05-07 23:57 46.36064 -72.67629 201 ft 11 kts 22°
2026-05-07 23:57 46.36097 -72.67674 208 ft 1 kts 299°